Regional Weather Roundup
Issued by NWS Cleveland, OH

Home | Current Version | Previous Version | Graphics & Text | Print | Product List | Glossary On
Versions: 1 2 3 4 5 6 7 8 9 10 11 12 13 14 15 16 17 18 19 20 21 22 23 24 25 26 27 28 29 30 31 32 33 34 35 36 37 38 39 40 41 42 43 44 45 46 47 48 49 50
000
ASUS41 KCLE 270800
RWRCLE
OHIO REGIONAL WEATHER ROUNDUP
NATIONAL WEATHER SERVICE WILMINGTON, OH
400 AM EDT SUN MAY 27 2018

NOTE: "FAIR" INDICATES FEW OR NO CLOUDS BELOW 12,000 FEET WITH NO
SIGNIFICANT WEATHER AND/OR OBSTRUCTIONS TO VISIBILITY.

OHZ001>008-015>018-024>027-034-035-043-044-270900-
   NORTHWEST OHIO

CITY           SKY/WX    TMP DP  RH WIND       PRES   REMARKS
DEFIANCE       FAIR      66  65  96 CALM      29.83S FOG
FINDLAY        FAIR      67  65  93 S6        29.84R FOG
TOLEDO EXPRESS FAIR      67  67 100 S3        29.83R FOG
TOLEDO EXEC    FAIR      67  65  93 S5        29.84S
LIMA           FAIR      68  67  96 S5        29.85S FOG
$$

OHZ009>014-019>023-028>033-038-089-270900-
   NORTHEAST OHIO

CITY           SKY/WX    TMP DP  RH WIND       PRES   REMARKS
CLE-HOPKINS    FAIR      66  64  93 SW3       29.87R
CLE-LAKEFRONT  FAIR      68  64  87 CALM      29.84R
CUY CO. ARPT   NOT AVBL
LORAIN-ELYRIA  FAIR      65  60  84 CALM      29.86R
ASHTABULA      FAIR      65  65 100 SE5       29.89R
AKRON-CANTON   FAIR      66  63  90 SW6       29.87S
WOOSTER        NOT AVBL
MANSFIELD      MOCLDY    67  66  97 S9        29.87S
YOUNGSTOWN     CLOUDY    67  66  97 SE6       29.87F
$$

OHZ042-051>053-060>062-070>072-077>081-270900-
  SOUTHWEST OHIO

CITY           SKY/WX    TMP DP  RH WIND       PRES   REMARKS
CINC-COVINGTON MOCLDY    71  68  90 SW7       29.87S
CINC-LUNKEN    FAIR      69  68  96 CALM      29.87S
HAMILTON       FAIR      67  67 100 CALM      29.87F FOG
DAYTON         NOT AVBL
WRIGHT-PAT AFB FAIR      67  65  91 S3        29.86S
DAYTON GENERAL FAIR      69  65  86 CALM      29.86S
WILMINGTON     FAIR      65  65 100 S5        29.87S
$$

OHZ036-037-039>041-045>050-054>059-063>069-073>076-082>088-270900-
  CENTRAL AND SOUTHEAST OHIO

CITY           SKY/WX    TMP DP  RH WIND       PRES   REMARKS
COLUMBUS       MOCLDY    68  67  96 S3        29.85F
OSU AIRPORT    FAIR      68  67  96 CALM      29.85F
BOLTON FIELD   NOT AVBL
RICKENBACK AFB NOT AVBL
NEWARK         FOG       67  66  97 CALM      29.85S VSB 1
MARION         FAIR      67  65  93 S3        29.86S FOG
LANCASTER      FAIR      64  64 100 S3        29.86S
ZANESVILLE     FAIR      67  65  93 SE5       29.87S
NEW PHILLY     FAIR      68  66  93 CALM      29.87S
$$




USA.gov is the U.S. government's official web portal to all federal, state and local government web resources and services.